Погода в Реже

Россия / Свердловская область     57°22′25″N   61°23′29″E
темп.,
°C
ветер,
м/с
пор.,
м/с
влажн.,
%
обл.,
%
осадки,
мм/ч
давл.,
гПа
погр.,
м
8 мая, сб
сб823:00+14з1157100 0.0 101810
02:00+14ю1159100 0.0 101811
05:00+10з117323 0.0 101810
08:00+16ююз005591 0.0 1018238
11:00+20ююв113942 0.0 1017963
14:00+22ю1125100 0.0 10162936
17:00+21ююз1124100 0.0 10162775
20:00+16сз3853100 0.0 1016338
9 мая, вс
вс923:00+13ссв3864100 0.1 1017210
02:00+11ссв127191 0.0 101718
05:00+10с227592 0.0 101732
08:00+14ссв2458100 0.0 1017285
11:00+19всв3439100 0.0 1017901
14:00+21св2528100 0.0 10172720
17:00+15ююз3555100 0.1 1019243
20:00+16сз225598 0.0 101821
10 мая, пн
пн1023:00+12ссв2261100 0.0 102019
02:00+11юв2461100 0.0 102168
05:00+11вюв246795 0.0 102278
08:00+16юв245810 0.0 1023396
11:00+20вюв23394 0.0 10231527
14:00+22в333122 0.0 10222651
17:00+22в322745 0.0 10222644
20:00+18ююв3643100 0.0 1023163
11 мая, вт
вт1123:00+14ю265133 0.0 1024118
02:00+13ююз3954100 0.0 1023195
05:00+13юз3953100 0.0 1023224
08:00+15ссз3766100 0.0 1023473
11:00+12зсз159293 2.1 1024308
14:00+15ссз466299 0.5 10241018
17:00+16с774795 0.5 10241636
20:00+13с486317 0.0 1026944
12 мая, ср
ср1223:00+9сз2280100 0.0 102713
02:00+8ссз238169 0.0 102851
05:00+6сз23785 0.0 102948
08:00+11сз245332 0.0 1029337
11:00+16ссз453699 0.0 10281569
14:00+16сз4542100 0.0 10271324
17:00+11сз2672100 0.1 1028453
20:00+10с147699 0.0 1028343